{"data":{"norad_id":45786,"epoch":"2026-05-25T03:13:58.052352Z","epoch_age_seconds":66431,"freshness":"FRESH","line1":"1 45786U 20038BJ  26145.13469968  .00001224  00000+0  51195-4 0  9990","line2":"2 45786  53.1584 195.6433 0001334  86.2211 273.8943 15.31695187328555","mean_motion":15.31695187,"eccentricity":0.0001334,"inclination_deg":53.1584,"raan_deg":195.6433,"arg_perigee_deg":86.2211,"mean_anomaly_deg":273.8943,"bstar":5.1195e-5,"rev_number":32855,"period_min":94.013483375919,"perigee_km":469.84070046067,"apogee_km":471.66798467087,"semimajor_km":6848.8913425658,"source":"CELESTRAK","updated_at":"2026-05-25T13:38:16.457835Z"}}